Dewpoint
48 26 28 33 30 29 29 27 27 27 35 35 37 35 33 32 53 56 62 63 68 71 74 75 78 78 78 77 77 77 76 75 76 76 76 76 76 76 77 77 76 75 75 73 72 72 72 72 72
34 22 24 31 29 27 27 28 25 27 36 37 35 33 32 49 59 61 61 65 68 72 73 74 78 78 78 77 77 76 76 76 76 76 76 76 76 76 77 77 76 75 74 72 72 72 72 72 71
41 34 23 27 28 27 26 28 27 29 35 35 33 33 33 53 57 63 63 67 68 71 73 76 78 78 78 77 77 76 76 76 76 76 76 76 76 77 76 76 76 75 72 71 71 72 72 72 71
20 27 26 21 25 29 29 29 29 33 35 32 32 32 35 52 56 65 64 66 68 70 71 77 77 77 77 77 77 76 76 76 76 76 76 76 76 76 76 76 75 74 72 71 72 72 72 72 72
23 19 16 14 21 25 28 29 28 30 33 30 31 31 39 58 61 65 62 65 66 66 74 75 77 77 77 77 77 76 76 76 76 76 76 76 76 76 76 76 75 73 73 72 72 73 72 72 71
20 19 12 9 10 14 21 26 27 28 31 29 29 30 40 62 61 63 62 64 64 66 73 73 77 77 77 77 77 76 76 76 76 76 76 76 76 76 76 75 75 74 73 73 73 73 73 72 72
16 14 10 8 8 11 13 16 17 23 28 28 29 29 55 59 61 61 62 62 61 66 69 71 73 76 77 77 77 76 76 76 76 76 76 76 76 75 75 75 75 74 73 73 73 73 73 72 72
16 14 8 5 4 4 7 7 13 15 26 28 29 28 38 63 68 67 65 61 60 63 66 67 71 73 74 75 76 76 76 76 76 75 76 75 75 75 75 75 75 74 73 73 73 73 73 73 72
16 13 10 6 4 2 1 1 3 20 19 19 23 28 35 61 62 65 62 63 61 61 65 65 67 70 69 71 74 76 76 76 75 75 75 75 71 73 72 72 73 74 73 73 72 72 72 72 72
13 12 9 8 7 4 3 3 -0 8 13 15 15 25 32 41 58 57 58 61 60 60 62 63 67 66 65 65 73 73 73 73 73 72 74 71 70 70 68 70 74 74 74 73 73 72 72 71 63
13 12 11 9 9 7 3 4 5 6 11 15 16 22 28 34 45 61 64 58 58 60 62 62 68 68 65 64 70 68 69 69 69 70 72 71 68 70 68 70 70 72 73 70 71 71 69 65 63
10 12 13 11 8 6 5 8 10 9 10 13 13 18 22 35 44 50 54 56 61 63 61 64 67 68 69 69 66 66 66 68 68 69 72 69 71 73 68 68 68 70 69 69 68 67 68 67 65
10 10 12 12 9 8 12 10 10 9 8 8 10 16 18 36 38 41 51 66 68 69 68 67 68 68 68 69 68 66 66 67 68 69 71 70 70 72 71 71 68 69 67 68 68 67 69 68 66
7 9 10 11 10 10 9 8 8 9 10 11 12 16 16 23 37 40 43 60 67 67 66 66 68 70 71 72 70 69 70 68 69 69 70 72 72 73 71 73 73 72 72 70 67 68 70 70 68
6 5 6 7 10 8 7 7 6 7 8 10 13 15 19 22 27 38 44 56 68 67 68 66 67 69 72 72 73 71 72 68 70 70 72 71 74 75 74 73 71 72 72 73 73 73 73 72 69
9 8 5 7 8 7 5 5 7 7 9 9 10 13 17 22 24 33 39 55 68 65 64 67 67 66 69 73 73 72 73 72 70 70 71 72 73 74 75 73 73 74 75 74 73 73 72 73 71
14 7 7 6 7 6 5 6 9 11 12 14 17 16 16 21 27 34 40 53 58 68 69 68 62 61 65 70 69 73 73 71 69 69 67 68 72 72 72 71 72 75 74 74 72 71 73 71 70
11 14 13 10 10 8 10 13 14 16 16 17 14 15 17 20 25 31 43 52 60 64 70 67 68 69 67 65 66 72 73 73 67 64 68 71 71 67 66 70 70 71 71 70 71 72 71 70 69
10 12 13 13 13 13 16 17 18 18 18 21 22 23 21 23 25 30 45 52 62 66 68 71 71 73 70 71 71 72 71 71 71 64 65 69 72 71 69 63 66 72 73 71 68 69 66 64 64
12 12 12 13 13 16 18 19 21 22 21 23 25 24 25 24 26 29 46 55 59 64 69 71 73 73 73 72 73 73 72 73 73 73 73 73 71 73 73 75 73 73 68 68 66 67 65 63 63
12 12 14 15 15 16 18 19 23 21 22 22 20 22 24 29 29 32 48 54 58 62 68 69 73 73 74 74 72 73 74 73 73 73 73 73 72 71 68 68 66 65 64 62 66 67 65 62 62
13 13 14 17 16 14 19 15 25 25 22 21 21 25 25 26 29 30 45 53 55 61 62 64 68 73 73 74 73 72 70 68 68 66 68 67 64 62 62 63 62 64 66 67 65 63 66 64 59
14 16 16 17 16 17 17 16 19 22 21 22 25 26 29 32 27 31 34 52 55 60 62 65 71 72 73 74 74 70 71 67 64 65 66 68 66 63 62 62 64 65 66 66 66 66 66 65 63
17 18 18 17 16 15 18 16 16 22 22 22 25 23 27 27 32 34 47 53 52 55 58 65 69 68 67 67 70 68 66 66 64 66 64 64 66 66 64 62 65 65 66 65 65 66 66 65 64
17 21 16 15 15 13 16 16 20 28 25 22 23 24 28 35 43 41 47 48 55 56 63 65 64 64 64 63 63 63 62 62 63 61 61 61 60 61 65 63 63 62 63 63 63 62 62 61 61
18 23 16 16 14 11 15 15 16 28 27 26 25 26 29 38 42 45 47 50 55 60 61 60 60 60 59 59 60 61 62 59 59 60 59 58 58 58 62 61 61 61 61 61 61 59 58 58 57
18 17 19 20 23 21 15 18 29 26 26 26 28 31 37 39 45 49 50 53 56 57 58 58 57 58 58 59 60 61 59 60 59 60 60 59 61 56 58 59 59 59 59 59 59 57 57 58 58
19 19 21 19 21 20 19 20 26 30 29 27 32 35 39 42 46 50 50 53 55 55 55 57 57 56 56 58 57 56 57 56 57 59 59 58 59 59 58 58 58 57 57 58 58 56 56 57 56
16 18 21 27 25 27 28 31 40 37 39 41 31 38 42 43 45 47 49 51 51 52 51 55 53 53 54 54 55 55 55 54 56 57 57 57 59 58 56 55 55 55 55 57 57 56 55 54 54
21 21 27 27 28 21 27 31 46 43 41 43 43 39 41 44 45 46 47 48 47 47 47 49 51 49 49 50 51 53 55 55 56 57 57 57 57 57 55 55 53 53 53 54 54 52 53 52 52
Lifted_Index
12 11 9 6 5 4 4 3 2 0 -0 0 1 2 1 -1 -4 -5 -4 -4 -5 -5 -5 -5 -5 -5 -4 -4 -3 -3 -3 -2 -2 -2 -2 -2 -2 -2 -2 -2 -2 -1 -1 -0 -0 -0 -0 -0 -0
11 11 9 6 4 4 3 2 1 -0 -0 0 1 2 1 -3 -5 -4 -4 -4 -5 -5 -5 -5 -5 -5 -5 -4 -4 -3 -3 -2 -2 -2 -2 -2 -2 -2 -2 -2 -2 -1 -1 -0 0 -0 -0 -0 -0
10 10 8 6 4 4 3 2 1 -0 -0 1 1 2 0 -3 -5 -5 -5 -5 -5 -5 -5 -5 -5 -5 -5 -4 -4 -4 -3 -3 -3 -2 -2 -2 -2 -2 -2 -2 -2 -1 -0 0 -0 -1 -1 -1 -1
10 9 7 6 5 4 3 2 1 -0 -0 1 1 2 0 -3 -4 -5 -5 -5 -5 -5 -6 -6 -6 -5 -5 -5 -4 -4 -4 -3 -3 -3 -3 -3 -3 -2 -2 -2 -2 -1 -0 -0 -1 -1 -1 -1 -1
9 8 7 5 5 5 4 3 1 0 0 1 2 2 -0 -3 -5 -5 -5 -5 -5 -6 -6 -6 -6 -6 -5 -5 -4 -4 -4 -4 -3 -3 -3 -3 -3 -3 -3 -3 -2 -1 -1 -1 -1 -1 -1 -1 -1
9 8 6 5 5 4 4 3 2 1 1 2 2 1 -1 -4 -5 -5 -5 -5 -5 -6 -6 -6 -6 -6 -5 -5 -5 -4 -4 -4 -4 -4 -4 -4 -4 -4 -3 -3 -3 -2 -2 -1 -2 -2 -2 -1 -1
8 7 6 5 5 4 3 2 1 1 2 2 2 1 -2 -4 -4 -4 -5 -5 -5 -5 -5 -5 -5 -5 -5 -5 -5 -5 -4 -4 -4 -4 -4 -4 -4 -4 -4 -4 -3 -3 -2 -2 -2 -2 -2 -2 -2
8 7 6 5 4 3 2 1 0 1 2 3 2 1 -1 -4 -4 -3 -4 -5 -4 -4 -4 -4 -4 -5 -5 -5 -5 -5 -5 -5 -5 -5 -4 -4 -4 -3 -3 -3 -3 -3 -2 -2 -2 -2 -2 -2 -2
8 7 6 6 5 3 2 0 -0 1 2 3 3 3 1 -2 -3 -3 -3 -3 -4 -3 -3 -3 -3 -4 -4 -4 -5 -5 -5 -5 -5 -5 -4 -3 -3 -3 -2 -2 -2 -2 -2 -2 -2 -1 -2 -2 -2
8 7 6 6 5 3 2 1 0 1 2 4 4 3 3 0 -2 -3 -3 -3 -3 -3 -3 -2 -3 -3 -2 -3 -4 -4 -4 -4 -4 -4 -3 -3 -2 -2 -2 -2 -2 -2 -2 -2 -2 -1 -1 -1 -1
8 7 7 6 5 4 3 3 2 2 3 4 4 4 3 2 -0 -2 -3 -3 -3 -3 -2 -2 -3 -3 -2 -2 -3 -3 -3 -3 -3 -3 -3 -2 -2 -2 -2 -2 -2 -2 -2 -2 -2 -1 -1 -1 -0
7 7 7 6 5 5 4 5 5 5 5 5 5 5 4 3 2 -1 -3 -4 -3 -3 -2 -2 -3 -3 -3 -3 -3 -3 -3 -3 -3 -3 -3 -3 -3 -3 -3 -2 -2 -2 -2 -2 -2 -2 -1 -1 -1
7 7 6 6 6 6 6 6 6 6 6 6 6 6 5 4 3 2 -1 -3 -3 -3 -2 -2 -2 -4 -5 -5 -4 -3 -3 -3 -3 -3 -4 -4 -4 -4 -4 -3 -3 -3 -3 -2 -2 -2 -2 -2 -1
6 6 6 6 6 6 7 7 7 7 7 7 7 7 7 6 5 4 1 -1 -2 -2 -1 -1 -1 -3 -6 -6 -6 -5 -4 -4 -4 -4 -4 -4 -5 -5 -5 -5 -4 -4 -4 -3 -3 -3 -3 -3 -2
6 6 6 6 6 6 6 6 7 7 7 7 7 7 7 7 7 6 3 0 -1 -1 -1 0 0 -1 -4 -6 -7 -6 -6 -5 -4 -4 -5 -5 -6 -6 -6 -6 -5 -5 -4 -4 -4 -4 -4 -4 -3
6 6 6 6 6 6 5 6 6 6 7 7 7 8 8 8 8 7 5 2 -0 -1 -1 -0 0 0 -2 -5 -6 -6 -6 -5 -4 -4 -4 -6 -7 -7 -6 -6 -6 -5 -5 -5 -5 -5 -5 -4 -3
5 5 5 5 4 4 5 5 6 6 6 6 7 7 8 8 9 8 6 3 1 -0 -1 -1 -0 0 -0 -2 -4 -5 -6 -4 -3 -2 -3 -4 -5 -5 -5 -5 -5 -5 -5 -5 -5 -5 -5 -4 -4
5 5 4 4 3 2 3 4 5 5 5 5 6 7 8 8 9 8 5 3 2 -0 -2 -3 -2 -1 -1 -2 -2 -4 -6 -5 -3 -2 -1 -1 -3 -3 -3 -3 -3 -4 -4 -4 -4 -4 -4 -3 -3
4 3 3 2 1 1 1 3 4 4 4 5 5 6 7 8 9 8 5 3 1 -1 -3 -4 -5 -5 -4 -4 -4 -5 -6 -5 -4 -3 -1 -1 -3 -4 -4 -3 -3 -4 -5 -4 -3 -3 -3 -2 -1
3 2 1 0 0 -0 0 1 3 3 3 4 4 6 7 8 8 7 5 2 1 -1 -3 -5 -7 -8 -8 -7 -7 -7 -7 -6 -6 -5 -5 -5 -5 -6 -6 -5 -5 -4 -4 -2 -2 -2 -1 -1 -1
3 2 0 -0 -0 -0 0 1 2 2 3 3 4 5 6 7 8 7 4 1 0 -1 -3 -5 -8 -10 -10 -9 -8 -8 -8 -7 -6 -6 -6 -6 -6 -5 -5 -4 -4 -3 -2 -1 -1 -1 -1 -1 -1
2 1 0 -0 -0 -0 0 1 1 1 2 2 3 4 5 5 6 5 3 0 -1 -3 -4 -5 -8 -10 -11 -10 -10 -9 -8 -7 -5 -4 -4 -4 -3 -3 -2 -1 -1 -1 -1 -1 -1 -1 -1 -1 -1
1 1 0 0 -0 0 0 0 0 0 1 2 3 3 3 3 3 2 0 -2 -3 -4 -5 -6 -8 -10 -10 -10 -9 -8 -7 -6 -4 -3 -3 -3 -2 -2 -1 -0 -0 -1 -2 -2 -1 -1 -2 -2 -1
0 0 0 -0 -0 0 0 0 0 0 0 1 1 2 2 1 0 -1 -2 -3 -4 -5 -6 -7 -8 -8 -8 -8 -8 -7 -5 -4 -4 -3 -3 -2 -3 -3 -2 -1 -1 -1 -1 -1 -1 -1 -1 -1 -1
-0 -0 -0 -0 -0 0 0 0 0 0 0 0 0 1 1 -0 -1 -2 -3 -4 -5 -6 -7 -7 -7 -6 -5 -5 -5 -5 -4 -3 -3 -2 -2 -2 -1 -1 -1 -0 0 -0 -0 -0 0 1 1 1 1
-0 -0 -0 -0 -0 -0 -0 -0 0 0 0 0 0 0 -0 -1 -2 -3 -3 -4 -6 -6 -6 -6 -5 -4 -4 -4 -4 -4 -3 -2 -1 -1 -1 -1 0 1 1 1 1 1 1 1 2 2 3 3 3
-0 -0 -0 -0 -0 -0 -0 -0 -0 -0 0 0 0 -0 -1 -1 -2 -3 -4 -5 -5 -5 -5 -4 -3 -3 -2 -2 -2 -2 -2 -1 -0 -0 0 0 1 1 2 2 2 2 3 3 3 3 4 4 4
0 0 -0 -0 -0 -0 -0 -0 -0 -0 -0 -0 -0 -1 -1 -2 -2 -3 -3 -4 -4 -4 -3 -3 -2 -1 -1 -0 -0 -0 0 1 1 1 1 1 1 1 2 2 3 3 3 4 4 4 5 5 5
0 0 -0 -0 -1 -1 -0 -0 0 -0 -0 -0 -1 -1 -1 -2 -2 -2 -2 -2 -2 -2 -1 -1 -0 0 1 1 1 1 1 1 1 1 1 1 1 2 2 3 3 4 4 4 4 5 5 6 6
0 0 -0 -0 -1 -1 -1 -0 0 -0 -0 -0 -1 -1 -2 -2 -2 -2 -1 -1 -1 -1 -0 0 1 1 1 2 2 2 2 2 2 2 2 2 2 2 3 3 4 4 4 5 5 5 6 6 7